Regional Weather Roundup
Issued by NWS

Home | Current Version | Previous Version | Text Only | Print | Product List | Glossary On
Versions: 1 2 3 4 5 6 7 8 9 10 11 12 13 14 15 16 17 18 19 20 21 22 23 24 25 26 27 28 29 30 31 32 33 34 35 36 37 38 39 40 41 42 43 44 45 46 47 48 49 50
000
ASUS43 KLMK 240702
RWRKY
KENTUCKY REGIONAL WEATHER ROUNDUP
NATIONAL WEATHER SERVICE LOUISVILLE KY
300 AM EDT THU AUG 24 2017

NOTE "FAIR" INDICATES FEW OR NO CLOUDS BELOW 12,000 FEET
WITH NO SIGNIFICANT WEATHER AND/OR OBSTRUCTIONS TO VISIBILITY.

KYZ001>023-026-027-061>063-070>075-240800-
WESTERN AND SOUTH CENTRAL KENTUCKY

CITY           SKY/WX    TMP DP  RH WIND       PRES   REMARKS
PADUCAH        CLEAR     58  55  90 CALM      30.02F
HENDERSON      NOT AVBL
OWENSBORO      PTCLDY    63  56  78 CALM      30.03S
HOPKINSVILLE   CLEAR     61  56  84 N3        30.01F
BOWLING GREEN  CLEAR     66  59  78 CALM      30.01F
GLASGOW        CLEAR     58  58 100 CALM      30.01S
$$

KYZ024-025-028>034-038-045-046-053-240800-
NORTH CENTRAL KENTUCKY

CITY           SKY/WX    TMP DP  RH WIND       PRES   REMARKS
LOUISVILLE/SDF PTCLDY    65  55  70 N3        30.02S
LOUISVILLE/LOU CLEAR     61  58  90 CALM      30.02F
FORT KNOX      CLEAR     58  56  96 CALM      30.01S
$$

KYZ035>037-039>044-047>052-055>060-089>105-240800-
NORTHEAST KENTUCKY

CITY           SKY/WX    TMP DP  RH WIND       PRES   REMARKS
LEXINGTON      MOCLDY    62  54  74 CALM      30.02F
COVINGTON      CLEAR     62  55  77 N6        30.02F
FRANKFORT      CLEAR     60  55  83 N3        30.01F
$$

KYZ054-064>069-076>088-106>120-240800-
SOUTHEAST KENTUCKY

CITY           SKY/WX    TMP DP  RH WIND       PRES   REMARKS
JACKSON        CLEAR     61  55  81 CALM      30.02S
LONDON         CLEAR     59  57  93 CALM      30.02S
SOMERSET       NOT AVBL
MIDDLESBORO    CLOUDY    62  61  97 CALM      30.02S
MONTICELLO     CLOUDY    57  57 100 CALM      30.04S FOG
$$





USA.gov is the U.S. government's official web portal to all federal, state and local government web resources and services.